Location: Il Ritiro
(43.4167°N, 13.1333°E)
Time: 07:47:41
(UTC+00:00)

Cosmos 1633 - Pass Details

Date: 05 July 2020
Orbit: 462 x 482 km, 82.5° (Epoch: 05 August)

Event Time Altitude Azimuth Distance (km) Brightness Sun altitude
Exits shadow 23:01:00 42° 52° (NE) 699 3.5 -23.9°
Drops below altitude 10° 23:03:46 10° 18° (NNE) 1,664 6.2 -23.9°
Sets 23:05:54 0° 14° (NNE) 2,545 7.5 -23.9°
